Location: Meadowlark Meadows
(41.2788°N, 111.9561°W)
Time: 16:35:37
(UTC+00:00)

X-37B - Visible Passes

Search period start: 06 July 2022 00:00
Search period end: 16 July 2022 00:00
Orbit: 328 x 343 km, 45.0° (Epoch: 29 June)

Date Brightness Start Highest point End Pass type
(mag) Time Alt. Az. Time Alt. Az. Time Alt. Az.
06 Jul 1.4 04:17:56 10° WNW 04:20:38 41° N 04:23:01 12° E visible
06 Jul 2.9 05:53:25 10° WNW 05:54:13 17° W 05:54:13 17° W visible
07 Jul 0.4 04:38:23 10° WNW 04:41:11 70° NNE 04:42:14 33° E visible
08 Jul 0.6 04:58:52 10° WNW 05:01:28 50° SW 05:01:28 50° SW visible
09 Jul 0.4 03:43:49 10° WNW 03:46:38 69° NNE 03:49:24 10° ESE visible
09 Jul 2.7 05:19:43 10° W 05:20:43 16° WSW 05:20:43 16° WSW visible
10 Jul 0.6 04:04:19 10° WNW 04:07:03 52° SSW 04:08:48 19° SE visible
11 Jul 2.1 04:25:09 10° W 04:27:21 20° SW 04:28:09 18° S visible
13 Jul 2.2 03:30:35 10° W 03:32:48 21° SW 03:34:58 10° SSE visible
